Location: Newark
(51.3318°N, 0.0053°E)
Time: 06:00:58
(UTC+00:00)

BlueWalker 3 - Pass Details

Date: 06 December 2022
Orbit: 499 x 517 km, 53.2° (Epoch: 28 January)

Event Time Altitude Azimuth Distance (km) Brightness Sun altitude
Rises 17:56:44 0° 287° (WNW) 2,633 6.6 -18.3°
Reaches altitude 10° 17:58:57 10° 287° (WNW) 1,741 5.5 -18.6°
Maximum altitude 18:02:53 84° 202° (SSW) 519 1.9 -19.2°
Enters shadow 18:03:52 50° 118° (ESE) 660 2.1 -19.4°
